Probability
19 42 42 23 13 10 3 0 0 3 0 6 0 3 0 3 0 6 16 0 0 0 0 0 0 0 0 3 10 13 6 3 6 10 6 10 13 19
13 23 42 42 39 19 10 10 0 3 0 3 3 0 0 0 0 3 3 0 0 0 0 0 0 0 0 0 0 0 0 0 0 0 0 3 3 3
3 3 6 26 45 26 23 19 10 6 6 3 13 3 6 0 0 0 3 10 0 0 0 0 0 0 0 0 0 0 0 0 0 0 0 0 0 0
0 3 3 3 23 42 45 19 19 19 13 6 16 3 10 6 3 0 0 0 0 0 0 0 0 0 0 0 0 0 0 0 0 0 0 0 0 0
0 0 0 0 3 26 39 29 29 6 19 19 19 19 3 3 3 0 0 0 0 0 0 0 0 0 0 0 0 0 0 0 0 0 0 0 0 0
0 0 0 0 0 3 6 29 29 32 32 16 13 19 6 3 0 0 0 0 0 0 0 0 0 0 0 0 0 0 0 0 0 0 0 0 0 0
0 0 0 0 0 0 0 10 16 23 26 26 16 13 6 3 0 0 0 0 0 0 0 0 0 0 0 0 0 0 0 0 0 0 0 0 0 0
0 0 0 0 0 0 0 0 0 3 13 13 19 19 16 6 6 0 0 0 0 0 0 0 0 0 0 0 0 0 0 0 0 0 0 0 0 0
0 0 0 0 0 0 0 0 0 0 0 6 13 13 26 16 6 0 0 0 0 0 0 0 0 0 0 0 0 0 0 0 0 0 0 0 0 0
0 0 0 0 0 0 0 0 0 0 0 0 0 13 13 26 16 6 0 0 0 0 0 0 0 0 0 0 0 0 0 0 0 0 0 0 0 0
0 0 0 0 0 0 0 0 0 0 0 0 0 0 0 0 0 6 0 0 0 0 0 0 0 0 0 0 0 0 0 0 0 0 0 0 0 0
0 0 0 0 0 0 0 0 0 0 0 0 0 0 0 0 0 0 0 0 0 0 0 0 0 0 0 0 0 0 0 0 0 0 0 0 0 0
0 0 0 0 0 0 0 0 0 0 0 0 0 0 0 0 0 0 0 0 0 0 0 0 0 0 0 0 0 0 0 0 0 0 0 0 0 0
0 0 0 0 0 0 0 0 0 0 0 0 0 0 0 0 0 0 0 0 0 0 0 0 0 0 0 0 0 0 0 0 0 0 0 0 0 0
0 0 0 0 0 0 0 0 0 0 0 0 0 0 0 0 0 0 0 0 0 0 0 0 0 0 0 0 0 0 0 0 0 0 0 0 0 0
0 0 0 0 0 0 0 0 0 0 0 0 0 0 0 0 0 0 0 0 0 0 0 0 0 0 0 0 0 0 0 0 0 0 0 0 0 0
0 0 0 0 0 0 0 0 0 0 0 0 0 0 0 0 0 0 0 0 0 0 0 0 0 0 0 0 0 0 0 0 0 0 0 0 0 0
0 0 0 0 0 0 0 0 0 0 0 0 0 0 0 0 0 0 0 0 0 0 0 0 0 0 0 0 0 0 0 0 0 0 0 0 0 0
0 0 0 0 0 0 0 0 0 0 0 0 0 0 0 0 0 0 0 0 0 0 0 0 0 0 0 0 0 0 0 0 0 0 0 0 0 0
0 0 0 0 0 0 0 0 0 0 0 0 0 0 0 0 0 0 0 0 0 0 0 0 0 0 0 0 0 0 0 0 0 0 0 0 0 0
0 0 0 0 0 0 0 0 0 0 0 0 0 0 0 0 0 0 0 0 0 0 0 0 0 0 0 0 0 0 0 0 0 0 0 0 0 0
0 0 0 0 0 0 0 0 0 0 0 0 0 0 0 0 0 0 0 0 0 0 0 0 0 0 0 0 0 0 0 0 0 0 0 0 0 0
0 0 0 0 0 0 0 0 0 0 0 0 0 0 0 0 0 0 0 0 0 0 0 0 0 0 0 0 0 0 0 0 0 0 0 0 0 0
Height
5738 5743 5747 5753 5758 5764 5769 5774 5780 5784 5789 5793 5797 5801 5805 5808 5810 5812 5813 5814 5815 5816 5816 5816 5816 5817 5818 5819 5821 5822 5824 5825 5827 5829 5830 5832 5835 5838
5725 5730 5735 5741 5747 5752 5758 5764 5770 5775 5780 5785 5790 5794 5798 5801 5804 5806 5808 5809 5810 5810 5811 5810 5811 5812 5813 5814 5815 5816 5818 5819 5821 5822 5824 5826 5828 5831
5710 5717 5723 5728 5734 5740 5747 5753 5759 5765 5771 5776 5781 5786 5790 5794 5797 5800 5802 5803 5804 5805 5805 5805 5806 5806 5807 5808 5809 5811 5812 5813 5815 5817 5818 5821 5823 5825
5694 5701 5708 5714 5720 5727 5734 5741 5748 5755 5761 5767 5772 5777 5782 5787 5790 5793 5795 5797 5798 5799 5800 5800 5801 5801 5802 5804 5805 5806 5807 5808 5810 5812 5813 5815 5817 5819
5676 5684 5691 5699 5707 5714 5721 5729 5736 5743 5750 5756 5762 5768 5774 5779 5783 5786 5789 5791 5793 5794 5795 5795 5796 5797 5798 5799 5800 5801 5803 5804 5805 5807 5808 5810 5812 5814
5658 5666 5674 5682 5691 5699 5707 5715 5723 5731 5738 5745 5752 5758 5764 5770 5775 5779 5782 5785 5787 5788 5789 5790 5791 5791 5793 5794 5795 5797 5798 5799 5801 5802 5804 5805 5806 5808
5639 5648 5657 5666 5675 5683 5692 5701 5710 5718 5726 5734 5741 5748 5755 5761 5766 5771 5774 5777 5780 5782 5784 5785 5785 5786 5787 5788 5790 5791 5793 5794 5796 5797 5799 5800 5801 5803
5620 5629 5639 5649 5658 5667 5677 5686 5696 5705 5714 5722 5730 5737 5745 5751 5757 5762 5766 5770 5774 5776 5777 5779 5780 5781 5782 5783 5784 5786 5787 5789 5790 5792 5793 5794 5795 5797
5603 5612 5621 5631 5642 5652 5662 5672 5681 5691 5701 5709 5717 5726 5733 5741 5747 5753 5758 5762 5766 5769 5771 5773 5774 5776 5777 5777 5779 5780 5782 5783 5784 5786 5787 5788 5790 5791
5587 5596 5606 5615 5626 5636 5647 5658 5668 5678 5689 5697 5706 5714 5721 5729 5736 5743 5749 5754 5759 5762 5765 5767 5769 5770 5771 5772 5774 5775 5776 5778 5779 5780 5781 5783 5784 5785
5574 5583 5592 5602 5612 5623 5634 5645 5656 5666 5675 5685 5694 5702 5710 5718 5726 5734 5741 5746 5751 5755 5758 5761 5763 5764 5766 5767 5768 5770 5771 5772 5773 5775 5776 5777 5778 5779
5564 5573 5582 5591 5599 5608 5619 5630 5641 5652 5662 5673 5682 5690 5699 5708 5716 5724 5731 5737 5742 5747 5751 5754 5756 5759 5760 5762 5763 5764 5766 5767 5768 5769 5770 5771 5773 5774
5553 5563 5571 5580 5589 5598 5607 5617 5627 5639 5650 5660 5670 5680 5689 5698 5707 5715 5722 5729 5735 5740 5744 5747 5750 5753 5755 5756 5758 5759 5760 5762 5763 5764 5765 5766 5767 5768
5545 5554 5563 5572 5580 5589 5597 5605 5615 5626 5638 5649 5660 5670 5679 5689 5697 5706 5713 5720 5727 5732 5736 5740 5743 5746 5749 5750 5752 5754 5755 5756 5757 5758 5759 5761 5762 5763
5538 5547 5555 5564 5572 5580 5588 5596 5605 5615 5627 5638 5650 5660 5670 5679 5687 5696 5704 5711 5718 5723 5728 5733 5736 5739 5742 5744 5746 5748 5749 5751 5752 5753 5754 5755 5756 5758
5533 5541 5549 5557 5565 5573 5580 5588 5597 5606 5617 5628 5639 5650 5659 5669 5678 5687 5696 5704 5710 5716 5721 5725 5729 5733 5736 5738 5740 5742 5743 5745 5746 5747 5748 5750 5751 5752
5529 5536 5544 5552 5559 5567 5574 5581 5589 5598 5608 5618 5629 5640 5651 5660 5670 5679 5688 5696 5703 5709 5714 5719 5722 5726 5729 5731 5733 5735 5737 5739 5740 5741 5743 5744 5745 5747
5525 5532 5539 5547 5554 5561 5568 5575 5582 5591 5600 5610 5621 5631 5642 5652 5663 5672 5680 5688 5695 5702 5707 5712 5716 5720 5723 5725 5727 5729 5731 5733 5735 5736 5737 5739 5741 5742
5522 5528 5535 5542 5548 5555 5562 5568 5575 5583 5593 5603 5613 5624 5634 5644 5655 5664 5673 5681 5688 5695 5700 5705 5709 5713 5716 5719 5721 5723 5726 5727 5729 5730 5732 5733 5735 5737
5519 5525 5531 5537 5543 5550 5556 5562 5569 5577 5586 5595 5606 5617 5627 5637 5648 5657 5666 5674 5682 5688 5693 5698 5702 5706 5709 5712 5715 5717 5719 5722 5723 5725 5727 5728 5730 5732
5517 5522 5528 5533 5539 5545 5551 5557 5563 5571 5579 5588 5599 5611 5621 5631 5642 5651 5660 5668 5675 5681 5687 5692 5696 5700 5703 5706 5709 5711 5714 5716 5718 5720 5721 5723 5725 5726
5516 5520 5525 5530 5535 5541 5546 5551 5558 5565 5573 5583 5593 5605 5616 5626 5636 5646 5654 5662 5669 5675 5680 5685 5689 5693 5697 5700 5703 5705 5708 5710 5711 5713 5715 5718 5719 5721
5515 5519 5524 5528 5533 5537 5542 5546 5553 5561 5570 5579 5590 5601 5611 5622 5632 5640 5649 5656 5663 5669 5674 5679 5683 5687 5691 5694 5696 5699 5701 5703 5705 5707 5709 5711 5713 5715
Wind_Speed
47 45 45 44 44 43 43 41 39 37 35 33 31 28 26 23 21 19 17 17 17 17 18 19 21 22 24 26 27 27 28 28 29 29 30 32 35 37
51 50 48 47 47 46 45 44 42 40 37 35 33 31 28 25 22 20 18 17 17 18 18 18 19 21 23 24 26 26 26 26 26 26 28 29 31 32
56 55 53 51 49 49 48 47 45 43 41 38 36 33 30 27 24 22 19 18 18 18 18 18 19 19 20 22 23 24 25 24 24 25 25 25 27 27
62 60 58 54 53 51 50 49 48 46 44 42 39 36 33 30 27 24 21 19 18 18 18 18 18 19 19 20 20 22 23 22 22 22 23 23 23 23
67 66 63 60 56 54 53 51 50 49 47 45 42 39 37 33 30 27 24 22 20 19 18 18 18 19 20 20 20 21 21 21 20 20 20 20 21 22
70 69 69 66 63 59 56 54 53 52 50 48 46 42 39 36 33 29 27 25 22 21 20 19 19 20 21 21 21 21 21 21 21 21 21 21 21 22
70 71 71 71 70 65 60 57 55 53 52 50 49 46 42 39 36 33 29 27 25 22 21 20 20 20 21 22 22 22 22 22 22 22 23 22 22 23
67 69 72 73 72 71 67 62 58 55 53 52 51 48 45 42 39 36 32 29 26 24 22 21 21 21 21 22 22 22 22 22 22 23 23 23 23 23
64 65 68 71 73 73 70 67 62 58 56 54 52 51 48 45 42 39 36 32 29 26 24 22 21 21 21 21 21 22 22 22 22 22 23 22 23 23
59 60 61 65 69 72 72 70 66 63 59 56 54 51 50 48 46 43 39 35 31 28 25 23 23 22 21 20 20 21 21 21 21 22 22 22 22 22
55 55 55 57 61 67 71 70 68 65 62 59 56 53 52 50 47 44 40 37 33 29 27 25 24 23 22 21 21 21 20 20 20 20 21 21 22 22
50 50 50 52 54 58 64 68 69 66 61 60 58 55 52 50 48 45 42 39 36 32 28 26 25 24 23 22 21 21 20 20 20 20 20 21 21 21
46 46 46 47 49 51 56 62 66 68 65 59 57 57 54 51 49 45 42 40 37 33 30 28 26 25 24 23 22 21 20 20 19 19 20 20 20 20
41 42 43 42 44 47 50 55 60 64 66 61 56 53 52 51 50 47 43 41 38 34 32 29 27 26 25 24 22 21 21 20 20 20 20 20 21 20
37 39 40 40 40 42 45 48 52 56 60 61 57 51 49 49 49 47 44 41 39 35 32 30 28 27 26 24 23 23 22 22 22 21 21 21 21 21
34 35 37 37 38 38 39 42 46 49 53 55 56 53 50 47 45 46 44 41 39 36 33 31 29 28 27 25 24 24 23 22 22 21 21 21 21 21
31 32 34 35 35 35 35 37 40 44 48 51 52 53 51 47 45 45 44 41 39 36 34 32 30 29 27 26 25 24 23 22 22 21 21 21 20 20
29 30 31 33 34 34 34 34 37 41 45 48 50 50 50 48 46 45 44 42 39 37 35 33 31 30 28 26 25 24 23 23 22 21 21 21 21 21
27 28 29 31 31 32 33 34 36 40 45 47 48 48 48 48 46 45 43 41 39 37 35 33 31 30 28 27 26 25 24 23 22 22 21 21 21 21
24 26 27 29 30 31 31 33 35 39 44 47 48 47 47 47 46 44 42 41 39 37 35 32 31 30 28 27 26 25 24 23 23 22 22 22 22 22
23 25 26 27 28 29 30 32 34 38 44 45 47 49 48 46 45 43 42 40 38 36 34 32 31 30 29 28 27 26 25 24 23 23 24 24 24 25
22 23 24 25 25 27 28 30 35 39 44 45 46 48 48 45 44 43 41 39 37 35 33 32 32 30 29 28 27 27 26 25 25 25 25 26 26 27
21 22 23 23 23 25 27 29 33 39 43 44 46 46 46 45 44 42 40 39 37 35 33 32 31 30 29 29 28 27 27 26 26 26 26 27 28 28
Wind_Direction
239 236 234 231 229 228 227 226 226 226 226 226 228 230 233 238 244 252 262 269 274 276 276 273 268 263 257 253 252 251 249 249 249 249 248 244 241 240
238 237 234 231 229 228 227 227 226 227 226 226 227 228 231 236 241 249 259 267 272 275 276 275 269 262 257 255 252 252 251 250 248 247 246 246 244 244
236 235 235 233 230 228 228 227 226 227 227 226 226 227 229 233 238 245 254 264 271 274 277 276 270 263 258 255 251 249 249 248 247 247 246 246 246 247
235 233 234 232 230 228 228 227 227 226 227 227 226 226 227 230 235 241 249 260 268 273 276 275 269 262 258 254 252 250 248 246 246 245 246 247 247 248
235 233 232 231 230 228 227 227 227 227 226 227 227 226 227 229 233 239 246 255 263 269 273 273 269 262 257 254 252 251 248 246 246 246 248 250 250 250
235 233 232 231 229 229 227 227 227 227 226 226 227 227 227 229 232 237 243 250 257 264 270 272 269 263 258 255 253 251 248 247 248 250 252 253 254 254
234 233 232 231 231 230 228 227 226 227 226 226 227 227 227 228 230 234 240 246 252 259 265 268 268 264 259 256 254 252 250 250 251 252 253 254 256 256
234 233 232 232 231 231 230 228 227 227 226 226 226 227 226 227 229 232 236 242 247 253 258 263 266 264 261 257 255 253 253 253 253 254 255 256 257 258
233 233 232 232 231 231 231 230 229 228 227 225 225 226 225 225 227 229 233 237 242 248 254 259 263 263 260 257 256 254 254 254 255 256 257 257 258 259
232 231 231 232 231 230 230 230 230 229 227 227 225 224 224 224 225 227 230 234 239 244 249 254 258 259 258 256 255 254 254 255 255 256 257 258 258 259
229 230 230 230 230 229 229 230 230 230 229 227 225 224 223 223 224 226 227 231 235 239 244 250 253 255 255 255 255 255 254 253 255 257 259 259 258 258
225 226 227 228 228 228 228 228 229 229 228 228 226 224 223 221 222 223 224 227 231 235 239 245 248 252 252 251 253 255 253 254 256 257 259 260 258 257
221 223 224 226 226 226 226 227 227 228 228 227 226 225 224 222 221 221 222 224 228 231 235 239 244 248 248 249 251 253 253 253 255 258 258 258 257 256
218 220 221 222 224 225 224 225 226 227 228 229 228 226 223 224 223 221 221 222 224 227 230 234 240 243 246 248 250 251 252 252 255 256 257 256 256 254
215 217 218 220 221 222 223 224 223 224 226 228 228 225 222 222 221 220 220 220 221 225 228 231 236 240 243 246 249 251 251 252 255 255 255 254 253 250
212 214 215 217 219 221 222 223 221 219 220 222 223 223 221 218 217 218 218 220 220 223 226 230 235 239 242 244 247 248 249 250 252 253 253 252 249 246
208 211 213 215 216 218 220 220 219 216 214 215 217 218 219 219 215 213 215 218 219 221 225 228 234 238 241 243 244 245 246 248 250 252 250 248 245 242
205 208 210 212 214 216 217 219 218 214 211 209 212 213 216 216 213 211 211 214 217 220 223 227 233 236 239 241 242 243 245 246 247 247 246 244 243 240
203 205 208 210 214 216 217 218 215 212 208 205 206 208 209 209 209 209 209 212 216 219 223 226 231 234 237 238 240 241 243 245 246 245 243 241 240 239
200 202 205 208 212 214 214 213 211 209 205 203 202 203 204 206 207 208 208 210 214 218 222 226 230 232 235 237 239 241 241 243 244 243 241 239 239 238
196 198 201 206 210 210 210 209 207 204 201 199 199 200 200 202 204 206 207 210 213 217 222 225 228 232 235 237 239 241 242 242 242 242 241 240 240 240
194 196 199 203 206 206 207 207 203 200 197 195 194 197 198 199 201 204 207 210 213 217 221 225 227 230 233 235 239 241 243 243 242 242 242 242 242 244
194 198 200 203 207 210 209 203 197 196 193 189 188 192 196 197 199 202 206 208 212 216 220 223 227 230 232 235 240 242 243 243 242 243 243 244 246 248